BANGABANDHUSAT-1

Last updated on Sun Apr 12 2026 00:02:55 GMT+0000 (Coordinated Universal Time)

1 43463U 18044A 26101.49697406 -.00000361 00000+0 00000+0 0 9991 2 43463 0.0263 103.9831 0002340 286.4877 107.2538 1.00272839 29042
UTC large
Height (km)
Speed (km/s)
/
Latitude / Longitude
Inclination (degrees)
Orbital Period (minutes)
Azimuth
Elevation
Range (km)
Doppler Factor

Next 0 passes for location: London (51.5072 / 0.1276)

Sorry there are no passes over London.
BANGABANDHUSAT-1